Flag for U.S.A. Weather past 2 weeks in Concord, California, U.S.A.

Now
71 °F

Passing clouds.


Feels Like: 73 °F
Forecast: 65 / 77 °F
Wind: 8 mph from South

Location: Buchanan Field

Current Time: Sep 18, 2014 at 1:16:48 AM

Latest Report: Sep 17, 2014 at 11:53 PM


Visibility: 10 mi

Pressure: 29.73 "Hg

Humidity: 76%

Dew point: 63 °F

Location of ConcordLocation

Historic Weather in Concord — Graph

°F

Concord temperature yesterday

Maximum temperature yesterday: 86 °F (at 1:53 PM)
Minimum temperature yesterday: 60 °F (at 5:53 AM)
Average temperature yesterday: 71 °F

Past Weeks' High & Low Weather Summary

 TemperatureHumidityPressure
High97 °F (Sep 11, 4:53 PM)93% (Sep 10, 1:53 AM)29.96 "Hg (Sep 10, 1:53 AM)
Low54 °F (Sep 10, 6:53 AM)11% (Sep 10, 4:53 PM)29.62 "Hg (Sep 3, 4:53 PM)
Average70 °F60%29.79 "Hg
* Reported Sep 2 11:53 PM — Sep 17 11:53 PM, Concord, Weather by CustomWeather, © 2014

Note: Actual official high and low records may vary slightly from our data, if they occured in-between our weather recording intervals... More about our weather records

Advertising

Concord weather history for September 3, 2014

 ConditionsComfort  
Time TempWeatherWind HumidityBarometerVisibility
12:53 AM
Sep 3
60 °FClear.5 mph83%29.72 "Hg10 mi
1:53 AM60 °FPassing clouds.6 mph83%29.72 "Hg10 mi
2:53 AM60 °FPassing clouds.6 mph83%29.71 "Hg10 mi
3:53 AM60 °FOvercast.5 mph86%29.71 "Hg10 mi
4:53 AM61 °FOvercast.8 mph83%29.71 "Hg10 mi
5:53 AM61 °FOvercast.9 mph83%29.72 "Hg10 mi
7:00 AM61 °FOvercast.8 mph83%29.78 "Hg10 mi
7:53 AM61 °FOvercast.9 mph83%29.74 "Hg10 mi
9:00 AM63 °FOvercast.6 mph78%29.79 "Hg10 mi
9:53 AM65 °FPassing clouds.3 mph73%29.76 "Hg10 mi
10:53 AM70 °FSunny.3 mph61%29.75 "Hg10 mi
11:53 AM74 °FSunny.13 mph56%29.74 "Hg10 mi
12:53 PM78 °FSunny.10 mph48%29.71 "Hg10 mi
1:53 PM80 °FSunny.10 mph45%29.69 "Hg10 mi
2:53 PM83 °FSunny.13 mph41%29.66 "Hg10 mi
3:53 PM84 °FSunny.15 mph38%29.64 "Hg10 mi
4:53 PM85 °FSunny.15 mph36%29.62 "Hg10 mi
5:53 PM78 °FSunny.15 mph46%29.63 "Hg10 mi
6:53 PM74 °FSunny.8 mph56%29.64 "Hg10 mi
7:53 PM71 °FSunny.8 mph59%29.64 "Hg10 mi
8:53 PM69 °FClear.6 mph63%29.65 "Hg10 mi
9:53 PM66 °FClear.8 mph70%29.66 "Hg10 mi
10:53 PM64 °FClear.6 mph75%29.66 "Hg10 mi
11:53 PM63 °FClear.5 mph78%29.66 "Hg10 mi
Weather by CustomWeather, © 2014

See weather overviewHow to use our weather pages